Regional Weather Roundup
Issued by NWS State College, PA

Home | Current Version | Previous Version | Graphics & Text | Print | Product List | Glossary On
Versions: 1 2 3 4 5 6 7 8 9 10 11 12 13 14 15 16 17 18 19 20 21 22 23 24 25 26 27 28 29 30 31 32 33 34 35 36 37 38 39 40 41 42 43 44 45 46 47 48 49 50
000
ASUS41 KCTP 300603
RWRCTP

REGIONAL WEATHER ROUNDUP
NATIONAL WEATHER SERVICE STATE COLLEGE PA
200 AM EDT MON MAY 30 2016

Note: "fair" indicates few or no clouds below 12,000 feet with no
significant weather and/or obstructions to visibility.

* = STATION THAT DOES NOT REPORT PRECIPITATION /E.G. RAIN...SNOW...ETC/
    THUNDER OR FOG.

PAZ002>004-007>009-013>016-020>023-029>032-300700-
WESTERN PENNSYLVANIA

CITY           SKY/WX    TMP DP  RH WIND       PRES   REMARKS
ERIE           CLOUDY    70  59  68 S9        29.95S
MEADVILLE      CLOUDY    63  60  90 S7        30.00F
FRANKLIN*      CLOUDY    61  57  88 SW8       30.04S
NEW CASTLE     FAIR      61  60  97 CALM      30.02F FOG
BEAVER COUNTY  NOT AVBL
BUTLER*        CLEAR    N/A N/A N/A CALM      30.06S
PITTSBURGH INT PTCLDY    64  59  83 CALM      30.03F
PITTSBURGH     CLEAR     63  59  87 CALM      30.03S
INDIANA*       CLOUDY    61  61 100 CALM      30.08S FOG
LATROBE        FOG       59  59 100 CALM      30.04F VSB 3/4
WASHINGTON CO* CLEAR     59  57  94 CALM      30.04S VSB 1
$$

PAZ004>006-010>012-017>019-024>028-033>037-041-042-045-046-049>053-300700-
CENTRAL PENNSYLVANIA

CITY           SKY/WX    TMP DP  RH WIND       PRES   REMARKS
BRADFORD       CLEAR     63  54  72 W6        30.05F
DUBOIS         PTCLDY    59  57  93 CALM      30.05F
CLEARFIELD     FOG       60  58  92 N5        30.05F VSB 1/4
JOHNSTOWN      CLOUDY    62  54  74 SW6       30.07F
ALTOONA        PTCLDY    63  58  83 CALM      30.06F
STATE COLLEGE  CLEAR     62  58  86 SW5       30.04F
WILLIAMSPORT   MOCLDY    72  57  59 NE7       30.00F
SELINSGROVE    CLOUDY    67  63  87 CALM      30.03F
FT INDIANTOWN  RAIN      64  64 100 SW6       30.04F FOG
CAPITAL CITY   LGT RAIN  64  61  90 W3        30.04F
HARRISBURG     RAIN      64  62  93 NW8       30.04F
YORK           LGT RAIN  66  65  96 CALM      30.04F
$$

PAZ038>040-043-044-047-048-054-055-060>062-067>071-300700-
EASTERN PENNSYLVANIA

CITY           SKY/WX    TMP DP  RH WIND       PRES   REMARKS
SCRANTON       LGT RAIN  68  64  87 SW6       30.04F
MOUNT POCONO   RAIN      61  50  68 E9        30.08F
ALLENTOWN      LGT RAIN  70  67  90 S7        30.02F
QUAKERTOWN*    CLOUDY    68  68 100 CALM      30.04F
READING        LGT RAIN  68  65  90 W3        30.02S
LANCASTER      CLOUDY    66  65  96 NW7       30.03F
COATESVILLE    CLOUDY    68  68 100 CALM      30.04F
POTTSTOWN      LGT RAIN  67  67 100 CALM      30.03F
BLUE BELL      CLOUDY    66  66 100 CALM      30.01F
DOYLESTOWN     LGT RAIN  66  66 100 CALM      30.02F
WILLOW GROVE   NOT AVBL
NORTH PHILA    RAIN      69  66  90 E6        30.03F FOG
PHILADELPHIA   LGT RAIN  70  68  93 E3        30.02F
$$



USA.gov is the U.S. government's official web portal to all federal, state and local government web resources and services.